Time,TemperatureF,DewpointF,PressureIn,WindDirection,WindDirectionDegrees,WindSpeedMPH,WindSpeedGustMPH,Humidity,HourlyPrecipIn,Conditions,Clouds,dailyrainin,SoftwareType,DateUTC
2013-04-19 00:03:00,45.1,35.2,30.12,NW,315,0.0,6.0,68,0.00,,,1.15,meteohub,2013-04-19 05:03:00,
2013-04-19 00:08:00,45.0,35.4,30.12,NW,315,0.0,6.0,69,0.00,,,1.15,meteohub,2013-04-19 05:08:00,
2013-04-19 00:14:00,44.8,35.2,30.12,NW,317,0.0,6.0,69,0.00,,,1.15,meteohub,2013-04-19 05:14:00,
2013-04-19 00:19:00,44.8,35.6,30.12,NW,320,0.0,3.0,70,0.00,,,1.15,meteohub,2013-04-19 05:19:00,
2013-04-19 00:24:00,44.4,35.2,30.12,NW,320,1.0,3.0,70,0.00,,,1.15,meteohub,2013-04-19 05:24:00,
2013-04-19 00:30:00,44.4,35.6,30.13,NW,314,1.0,3.0,71,0.00,,,1.15,meteohub,2013-04-19 05:30:00,
2013-04-19 00:35:00,44.2,35.1,30.13,NW,309,0.0,3.0,70,0.00,,,1.15,meteohub,2013-04-19 05:35:00,
2013-04-19 00:40:00,44.2,35.1,30.13,NW,325,0.0,3.0,70,0.00,,,0.00,meteohub,2013-04-19 05:40:00,
2013-04-19 00:46:00,44.2,35.1,30.13,NW,325,0.0,3.0,70,0.00,,,0.00,meteohub,2013-04-19 05:46:00,
2013-04-19 00:51:00,44.1,35.2,30.13,NW,325,0.0,3.0,71,0.00,,,0.00,meteohub,2013-04-19 05:51:00,
2013-04-19 00:57:00,43.9,35.1,30.13,NW,325,0.0,5.0,71,0.00,,,0.00,meteohub,2013-04-19 05:57:00,
2013-04-19 01:02:00,43.5,34.7,30.13,NW,325,0.0,5.0,71,0.00,,,0.00,meteohub,2013-04-19 06:02:00,
2013-04-19 01:07:00,43.5,34.7,30.13,NW,325,0.0,5.0,71,0.00,,,0.00,meteohub,2013-04-19 06:07:00,
2013-04-19 01:12:00,43.3,34.9,30.13,NW,324,0.0,5.0,72,0.00,,,0.00,meteohub,2013-04-19 06:12:00,
2013-04-19 01:17:00,43.2,34.7,30.13,NW,324,0.0,5.0,72,0.00,,,0.00,meteohub,2013-04-19 06:17:00,
2013-04-19 01:22:00,43.2,35.1,30.13,NW,324,1.0,5.0,73,0.00,,,0.00,meteohub,2013-04-19 06:22:00,
2013-04-19 01:28:00,42.8,34.7,30.13,NW,324,0.0,5.0,73,0.00,,,0.00,meteohub,2013-04-19 06:28:00,
2013-04-19 01:33:00,42.6,34.9,30.12,NW,324,0.0,2.0,74,0.00,,,0.00,meteohub,2013-04-19 06:33:00,
2013-04-19 01:38:00,42.3,35.2,30.12,NW,324,0.0,2.0,76,0.00,,,0.00,meteohub,2013-04-19 06:38:00,
2013-04-19 01:44:00,42.1,35.4,30.12,NW,324,0.0,2.0,77,0.00,,,0.00,meteohub,2013-04-19 06:44:00,
2013-04-19 01:49:00,41.9,35.2,30.12,NW,324,0.0,2.0,77,0.00,,,0.00,meteohub,2013-04-19 06:49:00,
2013-04-19 01:54:00,41.5,35.6,30.12,NW,324,0.0,2.0,79,0.00,,,0.00,meteohub,2013-04-19 06:54:00,
2013-04-19 02:00:00,41.4,35.4,30.12,NW,324,0.0,2.0,79,0.00,,,0.00,meteohub,2013-04-19 07:00:00,
2013-04-19 02:05:00,41.2,35.4,30.12,NW,324,0.0,2.0,80,0.00,,,0.00,meteohub,2013-04-19 07:05:00,
2013-04-19 02:10:00,40.8,35.4,30.12,NW,324,0.0,2.0,81,0.00,,,0.00,meteohub,2013-04-19 07:10:00,
2013-04-19 02:16:00,40.6,35.6,30.12,NW,324,0.0,0.0,82,0.00,,,0.00,meteohub,2013-04-19 07:16:00,
2013-04-19 02:21:00,40.5,35.4,30.12,NW,324,0.0,0.0,82,0.00,,,0.00,meteohub,2013-04-19 07:21:00,
2013-04-19 02:26:00,40.6,35.2,30.12,NW,324,0.0,0.0,81,0.00,,,0.00,meteohub,2013-04-19 07:26:00,
2013-04-19 02:32:00,40.6,35.2,30.12,NW,324,0.0,0.0,81,0.00,,,0.00,meteohub,2013-04-19 07:32:00,
2013-04-19 02:37:00,40.6,35.2,30.11,NW,324,0.0,0.0,81,0.00,,,0.00,meteohub,2013-04-19 07:37:00,
2013-04-19 02:42:00,40.6,34.9,30.11,NW,324,0.0,0.0,80,0.00,,,0.00,meteohub,2013-04-19 07:42:00,
2013-04-19 02:47:00,40.6,34.9,30.11,NW,324,0.0,0.0,80,0.00,,,0.00,meteohub,2013-04-19 07:47:00,
2013-04-19 02:52:00,40.6,34.7,30.11,NW,324,0.0,2.0,79,0.00,,,0.00,meteohub,2013-04-19 07:52:00,
2013-04-19 02:57:00,40.5,34.7,30.11,NW,324,0.0,2.0,80,0.00,,,0.00,meteohub,2013-04-19 07:57:00,
2013-04-19 03:02:00,40.5,34.5,30.11,NW,324,0.0,2.0,79,0.00,,,0.00,meteohub,2013-04-19 08:02:00,
2013-04-19 03:08:00,40.6,34.7,30.11,NW,323,1.0,2.0,79,0.00,,,0.00,meteohub,2013-04-19 08:08:00,
2013-04-19 03:13:00,40.6,34.7,30.12,NW,323,2.0,2.0,79,0.00,,,0.00,meteohub,2013-04-19 08:13:00,
2013-04-19 03:18:00,40.6,34.7,30.12,NW,323,0.0,3.0,79,0.00,,,0.00,meteohub,2013-04-19 08:18:00,
2013-04-19 03:24:00,40.6,34.7,30.12,NW,323,1.0,3.0,79,0.00,,,0.00,meteohub,2013-04-19 08:24:00,
2013-04-19 03:29:00,40.6,34.7,30.12,NW,323,0.0,3.0,79,0.00,,,0.00,meteohub,2013-04-19 08:29:00,
2013-04-19 03:34:00,40.6,34.7,30.13,NW,323,0.0,3.0,79,0.00,,,0.00,meteohub,2013-04-19 08:34:00,
2013-04-19 03:40:00,40.6,34.7,30.13,NW,323,0.0,3.0,79,0.00,,,0.00,meteohub,2013-04-19 08:40:00,
2013-04-19 03:45:00,40.6,34.7,30.13,NW,323,0.0,3.0,79,0.00,,,0.00,meteohub,2013-04-19 08:45:00,
2013-04-19 03:50:00,40.6,34.3,30.13,NW,323,0.0,3.0,78,0.00,,,0.00,meteohub,2013-04-19 08:50:00,
2013-04-19 03:55:00,40.6,34.3,30.13,NW,323,3.0,3.0,78,0.00,,,0.00,meteohub,2013-04-19 08:55:00,
2013-04-19 04:01:00,40.8,34.2,30.14,NW,317,1.0,3.0,77,0.00,,,0.00,meteohub,2013-04-19 09:01:00,
2013-04-19 04:06:00,40.8,34.2,30.14,NW,317,0.0,3.0,77,0.00,,,0.00,meteohub,2013-04-19 09:06:00,
2013-04-19 04:11:00,40.8,34.2,30.14,NW,317,0.0,3.0,77,0.00,,,0.00,meteohub,2013-04-19 09:11:00,
2013-04-19 04:17:00,40.8,34.2,30.14,NW,317,1.0,4.0,77,0.00,,,0.00,meteohub,2013-04-19 09:17:00,
2013-04-19 04:22:00,40.8,34.2,30.14,NW,317,0.0,4.0,77,0.00,,,0.00,meteohub,2013-04-19 09:22:00,
2013-04-19 04:27:00,40.8,34.2,30.14,NW,317,2.0,4.0,77,0.00,,,0.00,meteohub,2013-04-19 09:27:00,
2013-04-19 04:32:00,40.8,34.2,30.14,NW,317,0.0,4.0,77,0.00,,,0.00,meteohub,2013-04-19 09:32:00,
2013-04-19 04:37:00,40.8,34.2,30.14,NW,317,0.0,4.0,77,0.00,,,0.00,meteohub,2013-04-19 09:37:00,
2013-04-19 04:42:00,40.8,34.2,30.15,NW,317,0.0,4.0,77,0.00,,,0.00,meteohub,2013-04-19 09:42:00,
2013-04-19 04:47:00,40.6,34.0,30.15,NW,317,2.0,4.0,77,0.00,,,0.00,meteohub,2013-04-19 09:47:00,
2013-04-19 04:52:00,40.5,34.2,30.15,NW,317,0.0,4.0,78,0.00,,,0.00,meteohub,2013-04-19 09:52:00,
2013-04-19 04:57:00,40.5,34.2,30.16,NW,317,2.0,4.0,78,0.00,,,0.00,meteohub,2013-04-19 09:57:00,
2013-04-19 05:02:00,40.5,33.8,30.16,NW,318,0.0,4.0,77,0.00,,,0.00,meteohub,2013-04-19 10:02:00,
2013-04-19 05:08:00,40.6,33.6,30.16,NW,318,0.0,4.0,76,0.00,,,0.00,meteohub,2013-04-19 10:08:00,
2013-04-19 05:13:00,40.6,33.3,30.17,NW,318,0.0,5.0,75,0.00,,,0.00,meteohub,2013-04-19 10:13:00,
2013-04-19 05:19:00,40.6,33.3,30.17,NW,318,1.0,5.0,75,0.00,,,0.00,meteohub,2013-04-19 10:19:00,
2013-04-19 05:24:00,40.6,33.3,30.17,NW,318,0.0,5.0,75,0.00,,,0.00,meteohub,2013-04-19 10:24:00,
2013-04-19 05:29:00,40.6,33.3,30.17,NNW,336,0.0,5.0,75,0.00,,,0.00,meteohub,2013-04-19 10:29:00,
2013-04-19 05:34:00,40.6,33.3,30.17,NW,316,0.0,5.0,75,0.00,,,0.00,meteohub,2013-04-19 10:34:00,
2013-04-19 05:40:00,40.5,32.9,30.17,NW,317,0.0,5.0,74,0.00,,,0.00,meteohub,2013-04-19 10:40:00,
2013-04-19 05:45:00,40.5,32.9,30.18,NW,314,0.0,5.0,74,0.00,,,0.00,meteohub,2013-04-19 10:45:00,
2013-04-19 05:50:00,40.3,33.1,30.18,NW,314,0.0,5.0,75,0.00,,,0.00,meteohub,2013-04-19 10:50:00,
2013-04-19 05:56:00,40.3,32.7,30.19,NW,318,1.0,4.0,74,0.00,,,0.00,meteohub,2013-04-19 10:56:00,
2013-04-19 06:01:00,40.3,32.4,30.19,NW,317,0.0,4.0,73,0.00,,,0.00,meteohub,2013-04-19 11:01:00,
2013-04-19 06:07:00,40.3,32.7,30.19,NW,317,2.0,4.0,74,0.00,,,0.00,meteohub,2013-04-19 11:07:00,
2013-04-19 06:12:00,40.1,32.2,30.19,NW,317,0.0,4.0,73,0.00,,,0.00,meteohub,2013-04-19 11:12:00,
2013-04-19 06:17:00,39.7,32.5,30.19,NW,317,0.0,4.0,75,0.00,,,0.00,meteohub,2013-04-19 11:17:00,
2013-04-19 06:22:00,39.6,32.4,30.19,NW,317,0.0,4.0,75,0.00,,,0.00,meteohub,2013-04-19 11:22:00,
2013-04-19 06:27:00,39.2,32.4,30.19,NW,317,0.0,4.0,76,0.00,,,0.00,meteohub,2013-04-19 11:27:00,
2013-04-19 06:32:00,39.0,32.4,30.20,NW,317,2.0,4.0,77,0.00,,,0.00,meteohub,2013-04-19 11:32:00,
2013-04-19 06:37:00,39.0,32.4,30.20,NW,317,2.0,4.0,77,0.00,,,0.00,meteohub,2013-04-19 11:37:00,
2013-04-19 06:43:00,39.2,32.5,30.20,NW,317,1.0,3.0,77,0.00,,,0.00,meteohub,2013-04-19 11:43:00,
2013-04-19 06:48:00,39.4,32.5,30.20,NW,317,2.0,3.0,76,0.00,,,0.00,meteohub,2013-04-19 11:48:00,
2013-04-19 06:54:00,39.4,32.7,30.21,NW,317,1.0,3.0,77,0.00,,,0.00,meteohub,2013-04-19 11:54:00,
2013-04-19 06:59:00,39.0,32.7,30.21,NW,317,1.0,3.0,78,0.00,,,0.00,meteohub,2013-04-19 11:59:00,
2013-04-19 07:04:00,38.8,32.9,30.21,NW,317,0.0,3.0,79,0.00,,,0.00,meteohub,2013-04-19 12:04:00,
2013-04-19 07:10:00,38.8,33.3,30.21,NW,317,1.0,3.0,80,0.00,,,0.00,meteohub,2013-04-19 12:10:00,
2013-04-19 07:15:00,38.8,33.3,30.22,NW,317,2.0,3.0,80,0.00,,,0.00,meteohub,2013-04-19 12:15:00,
2013-04-19 07:21:00,39.0,33.4,30.22,NW,316,2.0,3.0,80,0.00,,,0.00,meteohub,2013-04-19 12:21:00,
2013-04-19 07:26:00,39.2,33.6,30.22,NW,316,1.0,3.0,80,0.00,,,0.00,meteohub,2013-04-19 12:26:00,
2013-04-19 07:31:00,39.6,33.6,30.22,NW,316,1.0,4.0,79,0.00,,,0.00,meteohub,2013-04-19 12:31:00,
2013-04-19 07:37:00,39.6,34.0,30.22,NW,316,1.0,4.0,80,0.00,,,0.00,meteohub,2013-04-19 12:37:00,
2013-04-19 07:42:00,39.7,34.2,30.22,NW,316,0.0,4.0,80,0.00,,,0.00,meteohub,2013-04-19 12:42:00,
2013-04-19 07:47:00,40.3,34.5,30.22,NW,316,2.0,4.0,80,0.00,,,0.00,meteohub,2013-04-19 12:47:00,
2013-04-19 07:53:00,40.6,34.9,30.22,NW,315,1.0,4.0,80,0.00,,,0.00,meteohub,2013-04-19 12:53:00,
2013-04-19 07:58:00,41.0,35.1,30.22,NW,315,4.0,4.0,79,0.00,,,0.00,meteohub,2013-04-19 12:58:00,
2013-04-19 08:03:00,41.5,35.2,30.22,NW,314,0.0,4.0,78,0.00,,,0.00,meteohub,2013-04-19 13:03:00,
2013-04-19 08:08:00,42.3,35.2,30.23,WNW,298,0.0,4.0,76,0.00,,,0.00,meteohub,2013-04-19 13:08:00,
2013-04-19 08:14:00,42.6,34.5,30.22,NW,324,1.0,4.0,73,0.00,,,0.00,meteohub,2013-04-19 13:14:00,
2013-04-19 08:19:00,43.2,34.0,30.22,NNW,338,1.0,8.0,70,0.00,,,0.00,meteohub,2013-04-19 13:19:00,
2013-04-19 08:25:00,43.9,33.6,30.22,NW,320,0.0,8.0,67,0.00,,,0.00,meteohub,2013-04-19 13:25:00,
2013-04-19 08:30:00,44.2,32.9,30.22,NW,319,1.0,8.0,64,0.00,,,0.00,meteohub,2013-04-19 13:30:00,
2013-04-19 08:36:00,44.8,33.3,30.22,NW,321,6.0,8.0,64,0.00,,,0.00,meteohub,2013-04-19 13:36:00,
2013-04-19 08:41:00,45.1,32.5,30.23,NNW,340,3.0,8.0,61,0.00,,,0.00,meteohub,2013-04-19 13:41:00,
2013-04-19 08:46:00,45.5,32.4,30.23,North,350,10.0,10.0,60,0.00,,,0.00,meteohub,2013-04-19 13:46:00,
2013-04-19 08:52:00,45.7,31.8,30.23,NNW,341,4.0,8.0,58,0.00,,,0.00,meteohub,2013-04-19 13:52:00,
2013-04-19 08:57:00,45.5,31.6,30.23,North,355,5.0,8.0,58,0.00,,,0.00,meteohub,2013-04-19 13:57:00,
2013-04-19 09:02:00,45.7,31.3,30.24,NW,322,12.0,12.0,57,0.00,,,0.00,meteohub,2013-04-19 14:02:00,
2013-04-19 09:07:00,45.7,31.3,30.24,NW,322,13.0,18.0,57,0.00,,,0.00,meteohub,2013-04-19 14:07:00,
2013-04-19 09:12:00,45.9,31.5,30.23,NW,317,12.0,18.0,57,0.00,,,0.00,meteohub,2013-04-19 14:12:00,
2013-04-19 09:17:00,46.0,31.3,30.24,NW,319,7.0,18.0,56,0.00,,,0.00,meteohub,2013-04-19 14:17:00,
2013-04-19 09:22:00,46.2,30.9,30.24,NNW,336,8.0,18.0,55,0.00,,,0.00,meteohub,2013-04-19 14:22:00,
2013-04-19 09:28:00,46.2,30.9,30.24,NNW,338,8.0,18.0,55,0.00,,,0.00,meteohub,2013-04-19 14:28:00,
2013-04-19 09:33:00,46.0,30.7,30.24,NW,319,10.0,18.0,55,0.00,,,0.00,meteohub,2013-04-19 14:33:00,
2013-04-19 09:38:00,46.4,30.7,30.24,NNW,340,4.0,18.0,54,0.00,,,0.00,meteohub,2013-04-19 14:38:00,
2013-04-19 09:43:00,46.6,31.3,30.24,NW,326,9.0,18.0,55,0.00,,,0.00,meteohub,2013-04-19 14:43:00,
2013-04-19 09:49:00,46.6,30.7,30.24,NNW,341,1.0,19.0,54,0.00,,,0.00,meteohub,2013-04-19 14:49:00,
2013-04-19 09:54:00,46.8,30.9,30.24,NNW,344,5.0,19.0,54,0.00,,,0.00,meteohub,2013-04-19 14:54:00,
2013-04-19 10:00:00,46.9,29.3,30.24,NNW,340,6.0,19.0,50,0.00,,,0.00,meteohub,2013-04-19 15:00:00,
2013-04-19 10:05:00,47.1,27.9,30.24,NNW,343,6.0,19.0,47,0.00,,,0.00,meteohub,2013-04-19 15:05:00,
2013-04-19 10:11:00,47.5,27.7,30.25,NE,34,6.0,19.0,46,0.00,,,0.00,meteohub,2013-04-19 15:11:00,
2013-04-19 10:16:00,47.7,28.4,30.25,NNW,332,6.0,19.0,47,0.00,,,0.00,meteohub,2013-04-19 15:16:00,
2013-04-19 10:21:00,48.0,28.2,30.25,NW,321,7.0,19.0,46,0.00,,,0.00,meteohub,2013-04-19 15:21:00,
2013-04-19 10:27:00,48.6,29.3,30.25,NNW,335,5.0,19.0,47,0.00,,,0.00,meteohub,2013-04-19 15:27:00,
2013-04-19 10:32:00,48.7,28.9,30.25,North,355,5.0,17.0,46,0.00,,,0.00,meteohub,2013-04-19 15:32:00,
2013-04-19 10:37:00,48.6,28.8,30.25,North,355,5.0,17.0,46,0.00,,,0.00,meteohub,2013-04-19 15:37:00,
2013-04-19 10:42:00,49.1,29.7,30.25,North,5,3.0,17.0,47,0.00,,,0.00,meteohub,2013-04-19 15:42:00,
2013-04-19 10:47:00,49.6,30.7,30.25,NW,318,4.0,17.0,48,0.00,,,0.00,meteohub,2013-04-19 15:47:00,
2013-04-19 10:52:00,49.5,29.5,30.26,NW,310,9.0,17.0,46,0.00,,,0.00,meteohub,2013-04-19 15:52:00,
2013-04-19 10:58:00,49.5,29.5,30.26,North,350,10.0,17.0,46,0.00,,,0.00,meteohub,2013-04-19 15:58:00,
2013-04-19 11:03:00,50.2,30.2,30.26,NW,325,4.0,17.0,46,0.00,,,0.00,meteohub,2013-04-19 16:03:00,
2013-04-19 11:08:00,50.7,30.2,30.26,NW,308,7.0,17.0,45,0.00,,,0.00,meteohub,2013-04-19 16:08:00,
2013-04-19 11:14:00,50.5,30.6,30.26,NNW,338,10.0,17.0,46,0.00,,,0.00,meteohub,2013-04-19 16:14:00,
2013-04-19 11:19:00,51.1,30.6,30.25,NNE,26,1.0,22.0,45,0.00,,,0.00,meteohub,2013-04-19 16:19:00,
2013-04-19 11:25:00,51.8,31.1,30.25,NW,318,4.0,22.0,45,0.00,,,0.00,meteohub,2013-04-19 16:25:00,
2013-04-19 11:30:00,52.0,30.7,30.26,WNW,296,5.0,22.0,44,0.00,,,0.00,meteohub,2013-04-19 16:30:00,
2013-04-19 11:35:00,52.0,30.2,30.26,NNW,338,7.0,22.0,43,0.00,,,0.00,meteohub,2013-04-19 16:35:00,
2013-04-19 11:41:00,51.8,29.5,30.25,NW,322,4.0,22.0,42,0.00,,,0.00,meteohub,2013-04-19 16:41:00,
2013-04-19 11:46:00,52.9,30.9,30.25,NW,311,9.0,22.0,43,0.00,,,0.00,meteohub,2013-04-19 16:46:00,
2013-04-19 11:51:00,53.2,30.7,30.25,NW,318,9.0,22.0,42,0.00,,,0.00,meteohub,2013-04-19 16:51:00,
2013-04-19 11:57:00,52.7,29.7,30.25,NW,315,3.0,22.0,41,0.00,,,0.00,meteohub,2013-04-19 16:57:00,
2013-04-19 12:02:00,53.4,30.9,30.25,NNW,331,1.0,13.0,42,0.00,,,0.00,meteohub,2013-04-19 17:02:00,
2013-04-19 12:07:00,54.3,31.1,30.25,NNW,345,4.0,13.0,41,0.00,,,0.00,meteohub,2013-04-19 17:07:00,
2013-04-19 12:12:00,54.5,31.8,30.25,NW,317,5.0,13.0,42,0.00,,,0.00,meteohub,2013-04-19 17:12:00,
2013-04-19 12:17:00,54.3,30.6,30.24,NW,313,8.0,13.0,40,0.00,,,0.00,meteohub,2013-04-19 17:17:00,
2013-04-19 12:22:00,54.3,30.6,30.25,NNW,328,5.0,13.0,40,0.00,,,0.00,meteohub,2013-04-19 17:22:00,
2013-04-19 12:27:00,54.9,30.4,30.24,NNW,345,7.0,13.0,39,0.00,,,1.15,meteohub,2013-04-19 17:27:00,
2013-04-19 12:32:00,54.9,30.4,30.24,NNW,339,8.0,13.0,39,0.00,,,0.00,meteohub,2013-04-19 17:32:00,
2013-04-19 12:37:00,55.2,30.7,30.24,NW,304,5.0,13.0,39,0.00,,,0.00,meteohub,2013-04-19 17:37:00,
2013-04-19 12:42:00,56.1,30.2,30.23,NW,317,6.0,13.0,37,0.00,,,0.00,meteohub,2013-04-19 17:42:00,
2013-04-19 12:47:00,55.9,30.7,30.23,NW,311,10.0,13.0,38,0.00,,,0.00,meteohub,2013-04-19 17:47:00,
2013-04-19 12:52:00,56.3,31.6,30.23,NW,324,6.0,14.0,39,0.00,,,0.00,meteohub,2013-04-19 17:52:00,
2013-04-19 12:58:00,57.4,31.3,30.22,North,5,4.0,14.0,37,0.00,,,0.00,meteohub,2013-04-19 17:58:00,
2013-04-19 13:03:00,57.4,33.3,30.22,NNW,329,10.0,14.0,40,0.00,,,0.00,meteohub,2013-04-19 18:03:00,
2013-04-19 13:09:00,57.7,34.9,30.22,NW,321,5.0,14.0,42,0.00,,,0.00,meteohub,2013-04-19 18:09:00,
2013-04-19 13:14:00,57.7,33.6,30.22,NW,304,8.0,14.0,40,0.00,,,0.00,meteohub,2013-04-19 18:14:00,
2013-04-19 13:19:00,58.1,32.5,30.22,NW,321,14.0,14.0,38,0.00,,,0.00,meteohub,2013-04-19 18:19:00,
2013-04-19 13:25:00,58.3,31.5,30.22,North,355,4.0,14.0,36,0.00,,,0.00,meteohub,2013-04-19 18:25:00,
2013-04-19 13:30:00,58.1,31.3,30.21,NW,307,4.0,14.0,36,0.00,,,0.00,meteohub,2013-04-19 18:30:00,
2013-04-19 13:36:00,58.5,30.2,30.21,NW,315,6.0,14.0,34,0.00,,,0.00,meteohub,2013-04-19 18:36:00,
2013-04-19 13:41:00,58.8,33.3,30.21,NW,304,8.0,19.0,38,0.00,,,0.00,meteohub,2013-04-19 18:41:00,
2013-04-19 13:46:00,59.4,31.6,30.21,NNW,328,1.0,19.0,35,0.00,,,0.00,meteohub,2013-04-19 18:46:00,
2013-04-19 13:51:00,59.2,30.7,30.21,NW,313,5.0,19.0,34,0.00,,,0.00,meteohub,2013-04-19 18:51:00,
2013-04-19 13:57:00,59.4,30.9,30.21,NW,325,8.0,19.0,34,0.00,,,0.00,meteohub,2013-04-19 18:57:00,
2013-04-19 14:02:00,59.4,30.9,30.21,North,355,3.0,19.0,34,0.00,,,0.00,meteohub,2013-04-19 19:02:00,
2013-04-19 14:07:00,59.2,30.7,30.21,NW,323,1.0,19.0,34,0.00,,,0.00,meteohub,2013-04-19 19:07:00,
2013-04-19 14:12:00,59.4,29.5,30.20,NNW,336,3.0,19.0,32,0.00,,,0.00,meteohub,2013-04-19 19:12:00,
2013-04-19 14:17:00,60.1,31.6,30.20,NNW,327,3.0,19.0,34,0.00,,,0.00,meteohub,2013-04-19 19:17:00,
2013-04-19 14:22:00,60.6,30.6,30.20,NNW,342,3.0,19.0,32,0.00,,,0.00,meteohub,2013-04-19 19:22:00,
2013-04-19 14:27:00,61.3,32.0,30.19,NNW,332,3.0,19.0,33,0.00,,,0.00,meteohub,2013-04-19 19:27:00,
2013-04-19 14:32:00,60.6,32.2,30.19,NW,319,9.0,15.0,34,0.00,,,0.00,meteohub,2013-04-19 19:32:00,
2013-04-19 14:38:00,61.5,34.3,30.19,WNW,301,7.0,15.0,36,0.00,,,0.00,meteohub,2013-04-19 19:38:00,
2013-04-19 14:43:00,61.3,30.4,30.19,NNW,330,7.0,15.0,31,0.00,,,0.00,meteohub,2013-04-19 19:43:00,
2013-04-19 14:49:00,61.3,32.7,30.19,WNW,298,4.0,15.0,34,0.00,,,0.00,meteohub,2013-04-19 19:49:00,
2013-04-19 14:54:00,62.1,32.5,30.19,NNW,333,12.0,15.0,33,0.00,,,0.00,meteohub,2013-04-19 19:54:00,
2013-04-19 14:59:00,61.2,31.1,30.19,North,355,2.0,15.0,32,0.00,,,0.00,meteohub,2013-04-19 19:59:00,
2013-04-19 15:05:00,61.0,32.4,30.18,NW,324,9.0,15.0,34,0.00,,,0.00,meteohub,2013-04-19 20:05:00,
2013-04-19 15:10:00,61.3,31.3,30.18,NW,325,6.0,15.0,32,0.00,,,0.00,meteohub,2013-04-19 20:10:00,
2013-04-19 15:15:00,61.3,29.7,30.18,North,349,4.0,17.0,30,0.00,,,0.00,meteohub,2013-04-19 20:15:00,
2013-04-19 15:21:00,61.2,30.2,30.17,NNW,327,5.0,17.0,31,0.00,,,0.00,meteohub,2013-04-19 20:21:00,
2013-04-19 15:26:00,62.1,31.8,30.18,NNW,337,10.0,17.0,32,0.00,,,0.00,meteohub,2013-04-19 20:26:00,
2013-04-19 15:31:00,61.9,32.5,30.17,NW,309,9.0,17.0,33,0.00,,,0.00,meteohub,2013-04-19 20:31:00,
2013-04-19 15:37:00,62.2,34.9,30.17,WNW,302,3.0,17.0,36,0.00,,,0.00,meteohub,2013-04-19 20:37:00,
2013-04-19 15:42:00,62.4,30.6,30.17,NW,315,4.0,17.0,30,0.00,,,0.00,meteohub,2013-04-19 20:42:00,
2013-04-19 15:47:00,61.3,28.8,30.17,NNE,21,0.0,17.0,29,0.00,,,0.00,meteohub,2013-04-19 20:47:00,
2013-04-19 15:52:00,63.0,34.2,30.16,WNW,292,4.0,17.0,34,0.00,,,0.00,meteohub,2013-04-19 20:52:00,
2013-04-19 15:57:00,62.8,34.0,30.16,WNW,303,6.0,17.0,34,0.00,,,0.00,meteohub,2013-04-19 20:57:00,
2013-04-19 16:02:00,62.4,34.3,30.16,NW,319,6.0,17.0,35,0.00,,,0.00,meteohub,2013-04-19 21:02:00,
2013-04-19 16:08:00,62.2,31.3,30.15,NW,315,5.0,17.0,31,0.00,,,0.00,meteohub,2013-04-19 21:08:00,
2013-04-19 16:13:00,62.2,32.7,30.15,North,0,3.0,17.0,33,0.00,,,0.00,meteohub,2013-04-19 21:13:00,
2013-04-19 16:18:00,62.2,32.7,30.15,North,0,1.0,14.0,33,0.00,,,0.00,meteohub,2013-04-19 21:18:00,
2013-04-19 16:24:00,62.1,29.5,30.15,NW,315,6.0,14.0,29,0.00,,,0.00,meteohub,2013-04-19 21:24:00,
2013-04-19 16:29:00,62.6,33.1,30.15,NNW,329,6.0,14.0,33,0.00,,,0.00,meteohub,2013-04-19 21:29:00,
2013-04-19 16:34:00,62.2,31.3,30.15,NNW,330,4.0,14.0,31,0.00,,,0.00,meteohub,2013-04-19 21:34:00,
2013-04-19 16:40:00,62.4,32.2,30.14,NW,306,3.0,14.0,32,0.00,,,0.00,meteohub,2013-04-19 21:40:00,
2013-04-19 16:45:00,63.1,35.1,30.14,NW,306,2.0,14.0,35,0.00,,,0.00,meteohub,2013-04-19 21:45:00,
2013-04-19 16:50:00,64.2,30.4,30.14,WNW,300,13.0,13.0,28,0.00,,,0.00,meteohub,2013-04-19 21:50:00,
2013-04-19 16:56:00,63.3,30.6,30.14,WNW,301,9.0,10.0,29,0.00,,,0.00,meteohub,2013-04-19 21:56:00,
2013-04-19 17:01:00,63.3,30.6,30.14,NW,315,7.0,10.0,29,0.00,,,0.00,meteohub,2013-04-19 22:01:00,
2013-04-19 17:06:00,63.0,28.4,30.14,NW,312,3.0,10.0,27,0.00,,,0.00,meteohub,2013-04-19 22:06:00,
2013-04-19 17:12:00,63.1,30.4,30.14,NW,320,7.0,10.0,29,0.00,,,0.00,meteohub,2013-04-19 22:12:00,
2013-04-19 17:17:00,63.1,29.5,30.14,NW,307,5.0,10.0,28,0.00,,,0.00,meteohub,2013-04-19 22:17:00,
2013-04-19 17:22:00,63.1,30.4,30.14,NW,315,2.0,9.0,29,0.00,,,0.00,meteohub,2013-04-19 22:22:00,
2013-04-19 17:27:00,63.1,31.3,30.14,NW,309,4.0,9.0,30,0.00,,,0.00,meteohub,2013-04-19 22:27:00,
2013-04-19 17:32:00,63.0,29.3,30.13,NNE,21,1.0,9.0,28,0.00,,,0.00,meteohub,2013-04-19 22:32:00,
2013-04-19 17:37:00,63.0,31.8,30.13,NNW,328,3.0,9.0,31,0.00,,,0.00,meteohub,2013-04-19 22:37:00,
2013-04-19 17:42:00,63.0,31.1,30.13,NNW,335,3.0,9.0,30,0.00,,,0.00,meteohub,2013-04-19 22:42:00,
2013-04-19 17:48:00,62.4,31.5,30.13,NW,323,0.0,9.0,31,0.00,,,0.00,meteohub,2013-04-19 22:48:00,
2013-04-19 17:53:00,62.4,31.5,30.13,NW,321,0.0,9.0,31,0.00,,,0.00,meteohub,2013-04-19 22:53:00,
2013-04-19 17:58:00,62.2,29.7,30.13,NW,318,3.0,11.0,29,0.00,,,0.00,meteohub,2013-04-19 22:58:00,
2013-04-19 18:04:00,62.6,31.5,30.13,NNW,327,0.0,11.0,31,0.00,,,0.00,meteohub,2013-04-19 23:04:00,
2013-04-19 18:09:00,62.4,32.2,30.12,NW,314,4.0,11.0,32,0.00,,,0.00,meteohub,2013-04-19 23:09:00,
2013-04-19 18:14:00,62.4,32.2,30.13,NW,322,3.0,11.0,32,0.00,,,0.00,meteohub,2013-04-19 23:14:00,
2013-04-19 18:20:00,62.2,29.7,30.13,NW,309,3.0,11.0,29,0.00,,,0.00,meteohub,2013-04-19 23:20:00,
2013-04-19 18:25:00,62.2,30.4,30.12,NNW,336,1.0,11.0,30,0.00,,,0.00,meteohub,2013-04-19 23:25:00,
2013-04-19 18:31:00,62.1,30.2,30.12,NW,326,1.0,11.0,30,0.00,,,0.00,meteohub,2013-04-19 23:31:00,
2013-04-19 18:36:00,62.1,30.2,30.12,North,5,0.0,9.0,30,0.00,,,0.00,meteohub,2013-04-19 23:36:00,
2013-04-19 18:41:00,62.2,31.3,30.12,NNW,329,5.0,9.0,31,0.00,,,0.00,meteohub,2013-04-19 23:41:00,
2013-04-19 18:47:00,62.1,31.1,30.12,NNW,335,0.0,9.0,31,0.00,,,0.00,meteohub,2013-04-19 23:47:00,
2013-04-19 18:52:00,62.1,31.1,30.12,NNW,342,3.0,9.0,31,0.00,,,0.00,meteohub,2013-04-19 23:52:00,
2013-04-19 18:57:00,62.1,31.1,30.12,NNW,331,0.0,9.0,31,0.00,,,0.00,meteohub,2013-04-19 23:57:00,
2013-04-19 19:02:00,61.9,30.0,30.12,NNW,329,0.0,9.0,30,0.00,,,0.00,meteohub,2013-04-20 00:02:00,
2013-04-19 19:07:00,61.5,30.6,30.12,NNW,327,2.0,9.0,31,0.00,,,0.00,meteohub,2013-04-20 00:07:00,
2013-04-19 19:12:00,61.3,31.3,30.12,NNW,327,1.0,9.0,32,0.00,,,0.00,meteohub,2013-04-20 00:12:00,
2013-04-19 19:17:00,61.3,32.0,30.12,NNW,327,0.0,4.0,33,0.00,,,0.00,meteohub,2013-04-20 00:17:00,
2013-04-19 19:22:00,61.3,32.0,30.12,NW,326,0.0,4.0,33,0.00,,,0.00,meteohub,2013-04-20 00:22:00,
2013-04-19 19:28:00,61.0,31.6,30.12,NW,326,0.0,4.0,33,0.00,,,0.00,meteohub,2013-04-20 00:28:00,
2013-04-19 19:33:00,60.6,32.2,30.12,NW,326,0.0,4.0,34,0.00,,,0.00,meteohub,2013-04-20 00:33:00,
2013-04-19 19:39:00,60.3,32.5,30.12,NW,326,0.0,4.0,35,0.00,,,0.00,meteohub,2013-04-20 00:39:00,
2013-04-19 19:44:00,60.1,31.6,30.12,NW,326,0.0,4.0,34,0.00,,,0.00,meteohub,2013-04-20 00:44:00,
2013-04-19 19:49:00,59.5,31.1,30.12,NW,326,0.0,4.0,34,0.00,,,0.00,meteohub,2013-04-20 00:49:00,
2013-04-19 19:55:00,59.2,32.2,30.12,NW,326,0.0,1.0,36,0.00,,,0.00,meteohub,2013-04-20 00:55:00,
2013-04-19 20:00:00,58.5,34.2,30.12,NW,326,0.0,1.0,40,0.00,,,0.00,meteohub,2013-04-20 01:00:00,
2013-04-19 20:05:00,57.7,34.2,30.12,NW,326,0.0,1.0,41,0.00,,,0.00,meteohub,2013-04-20 01:05:00,
2013-04-19 20:11:00,57.4,32.5,30.13,NW,326,0.0,1.0,39,0.00,,,0.00,meteohub,2013-04-20 01:11:00,
2013-04-19 20:16:00,56.8,37.4,30.12,NW,326,0.0,1.0,48,0.00,,,0.00,meteohub,2013-04-20 01:16:00,
2013-04-19 20:21:00,55.9,37.0,30.13,NW,326,0.0,1.0,49,0.00,,,0.00,meteohub,2013-04-20 01:21:00,
2013-04-19 20:27:00,55.8,37.4,30.13,NW,326,0.0,1.0,50,0.00,,,0.00,meteohub,2013-04-20 01:27:00,
2013-04-19 20:32:00,55.6,39.2,30.13,NW,326,0.0,0.0,54,0.00,,,0.00,meteohub,2013-04-20 01:32:00,
2013-04-19 20:37:00,54.9,40.3,30.13,NW,326,0.0,0.0,58,0.00,,,0.00,meteohub,2013-04-20 01:37:00,
2013-04-19 20:42:00,54.5,38.1,30.13,NW,326,0.0,0.0,54,0.00,,,0.00,meteohub,2013-04-20 01:42:00,
2013-04-19 20:47:00,54.3,37.0,30.13,NW,326,0.0,0.0,52,0.00,,,0.00,meteohub,2013-04-20 01:47:00,
2013-04-19 20:53:00,54.3,36.5,30.14,NW,326,0.0,0.0,51,0.00,,,0.00,meteohub,2013-04-20 01:53:00,
2013-04-19 20:58:00,54.1,39.2,30.14,NW,326,0.0,0.0,57,0.00,,,0.00,meteohub,2013-04-20 01:58:00,
2013-04-19 21:03:00,53.4,38.5,30.14,NW,326,0.0,1.0,57,0.00,,,0.00,meteohub,2013-04-20 02:03:00,
2013-04-19 21:09:00,53.4,38.5,30.14,NW,326,0.0,1.0,57,0.00,,,0.00,meteohub,2013-04-20 02:09:00,
2013-04-19 21:14:00,53.1,43.5,30.14,NW,326,0.0,1.0,70,0.00,,,0.00,meteohub,2013-04-20 02:14:00,
2013-04-19 21:19:00,52.2,42.3,30.14,NW,326,0.0,1.0,69,0.00,,,0.00,meteohub,2013-04-20 02:19:00,
2013-04-19 21:25:00,52.0,42.1,30.15,NW,326,0.0,1.0,69,0.00,,,0.00,meteohub,2013-04-20 02:25:00,
2013-04-19 21:30:00,51.8,43.3,30.14,NW,326,0.0,1.0,73,0.00,,,0.00,meteohub,2013-04-20 02:30:00,
2013-04-19 21:35:00,51.4,44.1,30.14,NW,326,0.0,0.0,76,0.00,,,0.00,meteohub,2013-04-20 02:35:00,
2013-04-19 21:41:00,50.9,45.0,30.15,NW,310,0.0,0.0,80,0.00,,,0.00,meteohub,2013-04-20 02:41:00,
2013-04-19 21:46:00,50.2,43.3,30.15,NW,310,0.0,0.0,77,0.00,,,0.00,meteohub,2013-04-20 02:46:00,
2013-04-19 21:51:00,49.8,42.6,30.14,NW,310,0.0,0.0,76,0.00,,,0.00,meteohub,2013-04-20 02:51:00,
2013-04-19 21:57:00,49.6,41.7,30.15,NW,310,0.0,0.0,74,0.00,,,0.00,meteohub,2013-04-20 02:57:00,
2013-04-19 22:02:00,50.4,40.6,30.15,NW,310,0.0,0.0,69,0.00,,,0.00,meteohub,2013-04-20 03:02:00,
2013-04-19 22:07:00,50.5,40.5,30.15,NW,310,0.0,1.0,68,0.00,,,0.00,meteohub,2013-04-20 03:07:00,
2013-04-19 22:12:00,50.5,41.2,30.15,NW,310,0.0,1.0,70,0.00,,,0.00,meteohub,2013-04-20 03:12:00,
2013-04-19 22:17:00,50.2,41.2,30.15,NW,310,0.0,1.0,71,0.00,,,0.00,meteohub,2013-04-20 03:17:00,
2013-04-19 22:22:00,50.0,41.4,30.15,NW,310,0.0,1.0,72,0.00,,,0.00,meteohub,2013-04-20 03:22:00,
2013-04-19 22:27:00,49.8,43.9,30.15,NW,310,0.0,1.0,80,0.00,,,0.00,meteohub,2013-04-20 03:27:00,
2013-04-19 22:32:00,49.5,43.9,30.15,NW,310,0.0,1.0,81,0.00,,,0.00,meteohub,2013-04-20 03:32:00,
2013-04-19 22:38:00,49.3,43.7,30.16,SW,236,0.0,1.0,81,0.00,,,0.00,meteohub,2013-04-20 03:38:00,
2013-04-19 22:43:00,48.9,43.7,30.16,SW,236,0.0,2.0,82,0.00,,,0.00,meteohub,2013-04-20 03:43:00,
2013-04-19 22:48:00,48.6,43.0,30.16,SW,236,0.0,2.0,81,0.00,,,0.00,meteohub,2013-04-20 03:48:00,
2013-04-19 22:54:00,48.6,43.0,30.15,SW,236,0.0,2.0,81,0.00,,,0.00,meteohub,2013-04-20 03:54:00,
2013-04-19 22:59:00,48.6,43.0,30.15,SW,236,0.0,2.0,81,0.00,,,0.00,meteohub,2013-04-20 03:59:00,
2013-04-19 23:01:00,48.6,43.0,30.15,SW,236,0.0,2.0,81,0.00,,,0.00,meteohub,2013-04-20 04:01:00,
2013-04-19 23:02:00,48.6,43.3,30.15,SW,236,0.0,2.0,82,0.00,,,0.00,meteohub,2013-04-20 04:02:00,
2013-04-19 23:03:00,48.6,43.0,30.15,SW,236,0.0,2.0,81,0.00,,,0.00,meteohub,2013-04-20 04:03:00,
2013-04-19 23:08:00,48.6,43.3,30.15,SW,236,0.0,2.0,82,0.00,,,0.00,meteohub,2013-04-20 04:08:00,
2013-04-19 23:13:00,48.2,43.0,30.15,SW,236,0.0,2.0,82,0.00,,,0.00,meteohub,2013-04-20 04:13:00,
2013-04-19 23:19:00,48.0,42.8,30.16,SW,236,0.0,0.0,82,0.00,,,0.00,meteohub,2013-04-20 04:19:00,
2013-04-19 23:24:00,48.0,42.8,30.16,SW,236,0.0,0.0,82,0.00,,,0.00,meteohub,2013-04-20 04:24:00,
2013-04-19 23:29:00,47.8,43.2,30.16,SW,236,0.0,0.0,84,0.00,,,0.00,meteohub,2013-04-20 04:29:00,
2013-04-19 23:34:00,47.5,43.2,30.16,SW,236,0.0,0.0,85,0.00,,,0.00,meteohub,2013-04-20 04:34:00,
2013-04-19 23:40:00,47.1,42.6,30.17,SW,236,0.0,0.0,84,0.00,,,0.00,meteohub,2013-04-20 04:40:00,
2013-04-19 23:45:00,46.9,42.1,30.17,SW,236,0.0,0.0,83,0.00,,,0.00,meteohub,2013-04-20 04:45:00,
2013-04-19 23:50:00,46.9,41.7,30.17,SW,236,0.0,1.0,82,0.00,,,0.00,meteohub,2013-04-20 04:50:00,
2013-04-19 23:56:00,47.3,41.2,30.17,South,182,0.0,1.0,79,0.00,,,0.00,meteohub,2013-04-20 04:56:00,